"Pseudo-MPEC" for SK000Zy

Created 2026 Aug 17 0:35:28 UT using Find_Orb

Click here for an explanation of pseudo-MPECs

 
 Astrometry: 
     SK000Zy*0B2026 08 16.27413621 30 51.288-05 14 55.10   ~8GCo 17.75VVNEOCPU62
     SK000Zy 0B2026 08 16.27544521 31 02.328-05 15 34.13   ~8GCo       VNEOCPU62
     SK000Zy 0B2026 08 16.27811621 31 24.778-05 16 54.19   ~8GCo 17.58VVNEOCPU62

Station data:
(U62) TransAstra TKO at SkiesAway  (N35.808074 W121.044920)  US/California.

Orbital elements:  SK000Zy
   Perigee 2026 Aug 15.531910 +/- 38.3 TT = 12:45:57.0 (JD 2461268.031910)
Epoch 2026 Aug 16.0 TT = JDT 2461268.5                           AutoNEOCP
q565371.1890 +/- 1.97e+7            (J2000 equator)
H   28.58 G 0.15                    Peri.  161.380357 +/- 51
                                    Node   121.734505 +/- 60
e  76.08306891 +/- 0.254            Incl.   13.613986 +/- 3.1
From 3 observations 2026 Aug. 16 (5.7 min); mean residual 0".08
Residuals in arcseconds: 
260816 U62  .05-  .09-    260816 U62  .07+  .14+    260816 U62  .02-  .05-    

Ephemerides (geocentric):
Date (UTC) HH   RA             Dec           delta  r     elong  mag " sig PA
---- --------  ------------   ------------  ------ ------ -----  --- --------
2026 08 17 01  22 48 24.729   -08 55 05.74  .00742 1.0196 163.7 18.8  64d  92
2026 08 17 02  22 51 08.203   -09 02 25.04  .00757 1.0197 163.1 18.9  64d  92
2026 08 17 03  22 53 45.323   -09 09 22.73  .00773 1.0199 162.5 19.0  64d  92
2026 08 17 04  22 56 16.412   -09 16 00.16  .00788 1.0200 162.0 19.0  64d  92
2026 08 17 05  22 58 41.777   -09 22 18.57  .00803 1.0201 161.5 19.1  65d  92
2026 08 17 06  23 01 01.707   -09 28 19.13  .00819 1.0202 161.0 19.2  65d  92
2026 08 17 07  23 03 16.474   -09 34 02.91  .00835 1.0203 160.5 19.2  65d  92
2026 08 17 08  23 05 26.333   -09 39 30.94  .00850 1.0205 160.1 19.3  65d  92
2026 08 17 09  23 07 31.527   -09 44 44.15  .00866 1.0206 159.6 19.3  65d  92
2026 08 17 10  23 09 32.282   -09 49 43.40  .00882 1.0207 159.2 19.4  65d  92
2026 08 17 11  23 11 28.812   -09 54 29.51  .00898 1.0208 158.8 19.4  65d  93
2026 08 17 12  23 13 21.319   -09 59 03.24  .00914 1.0209 158.4 19.5  65d  93
2026 08 17 13  23 15 09.993   -10 03 25.30  .00930 1.0210 158.0 19.5  66d  93
2026 08 17 14  23 16 55.015   -10 07 36.35  .00946 1.0212 157.6 19.6  66d  93
2026 08 17 15  23 18 36.552   -10 11 36.99  .00962 1.0213 157.3 19.6  66d  93
2026 08 17 16  23 20 14.766   -10 15 27.80  .00979 1.0214 156.9 19.7  66d  93
2026 08 17 17  23 21 49.805   -10 19 09.32  .00995 1.0215 156.6 19.7  66d  93
2026 08 17 18  23 23 21.814   -10 22 42.05  .01011 1.0216 156.3 19.8  66d  93
2026 08 17 19  23 24 50.926   -10 26 06.45  .01027 1.0218 156.0 19.8  66d  93
2026 08 17 20  23 26 17.269   -10 29 22.97  .01044 1.0219 155.7 19.8  66d  93
2026 08 17 21  23 27 40.963   -10 32 32.02  .01060 1.0220 155.4 19.9  66d  93
2026 08 17 22  23 29 02.121   -10 35 33.97  .01077 1.0221 155.1 19.9  66d  93
2026 08 17 23  23 30 20.852   -10 38 29.19  .01093 1.0222 154.8 20.0  68d  92
2026 08 18 00  23 31 37.257   -10 41 18.02  .01110 1.0224 154.6 20.0  67d  92
2026 08 18 01  23 32 51.433   -10 44 00.78  .01126 1.0225 154.3 20.1  65d  93
2026 08 18 02  23 34 03.472   -10 46 37.75  .01143 1.0226 154.1 20.1  65d  93
2026 08 18 03  23 35 13.461   -10 49 09.23  .01160 1.0227 153.8 20.1  65d  93
2026 08 18 04  23 36 21.481   -10 51 35.48  .01176 1.0228 153.6 20.2  64d  93
2026 08 18 05  23 37 27.612   -10 53 56.73  .01193 1.0230 153.4 20.2  64d  93
2026 08 18 06  23 38 31.927   -10 56 13.24  .01210 1.0231 153.1 20.2  64d  93
2026 08 18 07  23 39 34.498   -10 58 25.21  .01226 1.0232 152.9 20.3  64d  93
2026 08 18 08  23 40 35.391   -11 00 32.85  .01243 1.0233 152.7 20.3  64d  93
2026 08 18 09  23 41 34.670   -11 02 36.36  .01260 1.0234 152.5 20.3  64d  93
2026 08 18 10  23 42 32.396   -11 04 35.93  .01277 1.0236 152.3 20.4  64d  93
2026 08 18 11  23 43 28.628   -11 06 31.73  .01294 1.0237 152.1 20.4  64d  93
2026 08 18 12  23 44 23.419   -11 08 23.91  .01310 1.0238 152.0 20.5  64d  93
2026 08 18 13  23 45 16.823   -11 10 12.65  .01327 1.0239 151.8 20.5  64d  93
2026 08 18 14  23 46 08.890   -11 11 58.08  .01344 1.0241 151.6 20.5  64d  93
2026 08 18 15  23 46 59.667   -11 13 40.35  .01361 1.0242 151.5 20.5  64d  93
2026 08 18 16  23 47 49.201   -11 15 19.59  .01378 1.0243 151.3 20.6  64d  93
2026 08 18 17  23 48 37.534   -11 16 55.92  .01395 1.0244 151.1 20.6  64d  93
2026 08 18 18  23 49 24.708   -11 18 29.46  .01412 1.0245 151.0 20.6  64d  93
2026 08 18 19  23 50 10.764   -11 20 00.32  .01429 1.0247 150.8 20.7  64d  93
2026 08 18 20  23 50 55.738   -11 21 28.62  .01446 1.0248 150.7 20.7  64d  93
2026 08 18 21  23 51 39.667   -11 22 54.44  .01463 1.0249 150.6 20.7  64d  93
2026 08 18 22  23 52 22.587   -11 24 17.90  .01480 1.0250 150.4 20.8  64d  93
2026 08 18 23  23 53 04.530   -11 25 39.08  .01497 1.0252 150.3 20.8  64d  93
2026 08 19 00  23 53 45.527   -11 26 58.07  .01514 1.0253 150.2 20.8  64d  93